Regional Weather Roundup
Issued by NWS Raleigh/Durham, NC

Home | Current Version | Previous Version | Text Only | Print | Product List | Glossary On
Versions: 1 2 3 4 5 6 7 8 9 10 11 12 13 14 15 16 17 18 19 20 21 22 23 24 25 26 27 28 29 30 31 32 33 34 35 36 37 38 39 40 41 42 43 44 45 46 47 48 49 50
000
ASUS42 KRAH 190910
RWRRAH
NORTH CAROLINA WEATHER ROUNDUP
NATIONAL WEATHER SERVICE RALEIGH NC
500 AM EDT SAT AUG 19 2017

NOTE: "FAIR" INDICATES FEW OR NO CLOUDS BELOW 12,000 FEET WITH NO
SIGNIFICANT WEATHER AND/OR OBSTRUCTIONS TO VISIBILITY.

NCZ001-053-055-056-065-067-191000-
WESTERN NORTH CAROLINA

CITY           SKY/WX    TMP DP  RH WIND       PRES   REMARKS
ASHEVILLE      CLEAR     67  32  27 N3        30.04F
JEFFERSON      CLEAR     64  60  86 W6        30.08S
MORGANTON      CLOUDY    69  69 100 CALM      30.01S
HICKORY        CLOUDY    72  71  97 CALM      29.97S
RUTHERFORDTON  MOCLDY    72  71  97 CALM      29.98S
MOUNT AIRY     PTCLDY    69  65  86 CALM      29.99S
BOONE          CLEAR     63  63  98 W6        30.09S
$$

NCZ021-022-025-041-071-084-088-191000-
CENTRAL NORTH CAROLINA

CITY           SKY/WX    TMP DP  RH WIND       PRES   REMARKS
CHARLOTTE      PTCLDY    74  73  97 N3        29.95R
GREENSBORO     PTCLDY    74  70  87 NW3       29.94S
WINSTON-SALEM  PTCLDY    74  68  81 NW7       29.96S
RALEIGH-DURHAM PTCLDY    74  73  97 CALM      29.91F FOG
FORT BRAGG     CLOUDY    77  74  91 CALM      29.90S
FAYETTEVILLE   CLOUDY    79  77  94 SW5       29.90S
BURLINGTON     PTCLDY    73  72  96 CALM      29.92F
LAURINBURG     CLOUDY    78  78 100 SW5       29.91S
$$

NCZ011-015-027-028-043-044-047-080-103-191000-
NORTHEASTERN NORTH CAROLINA

CITY           SKY/WX    TMP DP  RH WIND       PRES   REMARKS
ROCKY MT-WILSO CLEAR     76  75  97 W3        29.90S
GREENVILLE     CLEAR     79  79 100 W6        29.91S
WASHINGTON     CLEAR     78  76  94 SW6       29.89S
ELIZABETH CITY PTCLDY    80  79  96 SW8       29.86F
MANTEO         MOCLDY    80  78  94 W9        29.88F
CAPE HATTERAS  PTCLDY    82  81  96 SW13G21   29.89F HX  95
$$

NCZ078-087-090-091-093-098-101-191000-
SOUTHEASTERN NORTH CAROLINA

CITY           SKY/WX    TMP DP  RH WIND       PRES   REMARKS
LUMBERTON      MOCLDY    78  77  96 CALM      29.90F
GOLDSBORO      CLEAR     79  79 100 SW5       29.89S
KINSTON        CLEAR     79  77  94 SW5       29.90F
KENANSVILLE    MOCLDY    77  75  94 CALM      29.91S
NEW BERN       CLEAR     79  78  97 SW5       29.91F
CHERRY POINT   PTCLDY    82  78  88 SW9       29.91S
BEAUFORT       PTCLDY    83  82  97 SW13      29.91S HX  98
JACKSONVILLE   CLEAR     80  79  96 SW8       29.90S
WILMINGTON     CLEAR     82  79  90 SW9       29.91F
$$




USA.gov is the U.S. government's official web portal to all federal, state and local government web resources and services.